1579474851,2020-01-20 00:00,84.89,1010.38,0.00,1039.29,3.08,0.00,240,0.1
1579474911,2020-01-20 00:01,84.95,1010.36,0.00,1039.28,3.10,0.00,240,0.1
1579474971,2020-01-20 00:02,84.67,1010.39,0.00,1039.31,3.28,0.00,240,0.1
1579475031,2020-01-20 00:03,84.52,1010.42,0.00,1039.33,3.20,0.00,240,0.1
1579475091,2020-01-20 00:04,84.42,1010.42,0.00,1039.34,3.08,0.00,240,0.1
1579475152,2020-01-20 00:05,85.05,1010.47,0.00,1039.38,3.02,0.00,240,0.1
1579475212,2020-01-20 00:06,85.23,1010.47,0.00,1039.39,3.12,0.00,240,0.1
1579475272,2020-01-20 00:07,85.66,1010.45,0.00,1039.37,2.89,0.00,240,0.1
1579475332,2020-01-20 00:08,85.18,1010.48,0.00,1039.40,2.93,0.00,240,0.1
1579475392,2020-01-20 00:09,85.50,1010.48,0.00,1039.40,2.86,0.00,240,0.1
1579475452,2020-01-20 00:10,86.37,1010.50,0.00,1039.42,2.72,0.00,240,0.1
1579475512,2020-01-20 00:11,85.59,1010.53,0.00,1039.44,2.70,0.00,240,0.1
1579475572,2020-01-20 00:12,85.75,1010.51,0.00,1039.43,2.87,0.00,240,0.1
1579475632,2020-01-20 00:13,84.91,1010.53,0.00,1039.45,2.74,0.00,240,0.1
1579475692,2020-01-20 00:14,85.15,1010.58,0.00,1039.49,2.81,0.00,240,0.1
1579475753,2020-01-20 00:15,84.81,1010.57,0.00,1039.48,2.76,0.00,240,0.1
1579475813,2020-01-20 00:16,85.13,1010.57,0.00,1039.49,2.78,0.00,240,0.1
1579475873,2020-01-20 00:17,85.02,1010.60,0.00,1039.52,2.79,0.00,240,0.1
1579475933,2020-01-20 00:18,85.11,1010.62,0.00,1039.53,2.68,0.00,240,0.1
1579475993,2020-01-20 00:19,85.10,1010.62,0.00,1039.54,2.81,0.00,240,0.1
1579476053,2020-01-20 00:20,85.29,1010.61,0.00,1039.53,2.61,0.00,240,0.1
1579476113,2020-01-20 00:21,85.47,1010.67,0.00,1039.59,2.63,0.00,240,0.1
1579476174,2020-01-20 00:22,85.66,1010.66,0.00,1039.58,2.53,0.00,240,0.1
1579476234,2020-01-20 00:23,85.79,1010.64,0.00,1039.56,2.44,0.00,240,0.1
1579476294,2020-01-20 00:24,86.19,1010.67,0.00,1039.59,2.40,0.00,240,0.1
1579476354,2020-01-20 00:25,86.19,1010.64,0.00,1039.56,2.43,0.00,240,0.1
1579476414,2020-01-20 00:26,85.90,1010.65,0.00,1039.56,2.54,0.00,240,0.1
1579476474,2020-01-20 00:27,85.89,1010.65,0.00,1039.57,2.68,0.00,240,0.1
1579476534,2020-01-20 00:28,86.18,1010.66,0.00,1039.58,2.75,0.00,240,0.1
1579476594,2020-01-20 00:29,85.64,1010.69,0.00,1039.60,2.64,0.00,240,0.1
1579476654,2020-01-20 00:30,85.40,1010.69,0.00,1039.61,2.61,0.00,240,0.1
1579476715,2020-01-20 00:31,86.88,1010.68,0.00,1039.60,2.63,0.00,240,0.1
1579476775,2020-01-20 00:32,87.00,1010.72,0.00,1039.64,2.74,0.00,240,0.1
1579476835,2020-01-20 00:33,86.24,1010.72,0.00,1039.63,2.85,0.00,240,0.1
1579476895,2020-01-20 00:34,86.12,1010.72,0.00,1039.63,2.96,0.00,240,0.1
1579476955,2020-01-20 00:35,85.55,1010.73,0.00,1039.64,2.74,0.00,240,0.1
1579477015,2020-01-20 00:36,84.75,1010.75,0.00,1039.67,2.74,0.00,240,0.1
1579477075,2020-01-20 00:37,85.47,1010.80,0.00,1039.72,2.70,0.00,240,0.1
1579477135,2020-01-20 00:38,86.07,1010.78,0.00,1039.70,2.74,0.00,240,0.1
1579477195,2020-01-20 00:39,85.87,1010.78,0.00,1039.70,2.86,0.00,240,0.1
1579477255,2020-01-20 00:40,85.49,1010.80,0.00,1039.72,2.88,0.00,240,0.1
1579477315,2020-01-20 00:41,85.79,1010.84,0.00,1039.75,2.85,0.00,240,0.1
1579477375,2020-01-20 00:42,86.60,1010.87,0.00,1039.78,2.66,0.00,240,0.1
1579477436,2020-01-20 00:43,86.94,1010.91,0.00,1039.83,2.55,0.00,240,0.1
1579477496,2020-01-20 00:44,86.90,1010.95,0.00,1039.86,2.57,0.00,240,0.1
1579477556,2020-01-20 00:45,86.61,1010.90,0.00,1039.82,2.65,0.00,240,0.1
1579477616,2020-01-20 00:46,86.26,1010.96,0.00,1039.87,2.81,0.00,240,0.1
1579477677,2020-01-20 00:47,86.24,1010.99,0.00,1039.91,2.80,0.00,240,0.1
1579477737,2020-01-20 00:48,86.34,1011.00,0.00,1039.92,2.69,0.00,240,0.1
1579477797,2020-01-20 00:49,86.60,1011.04,0.00,1039.95,2.71,0.00,240,0.1
1579477857,2020-01-20 00:50,86.49,1010.99,0.00,1039.90,2.77,0.00,240,0.1
1579477917,2020-01-20 00:51,86.65,1011.03,0.00,1039.94,2.79,0.00,240,0.1
1579477977,2020-01-20 00:52,86.81,1011.05,0.00,1039.97,2.64,0.00,240,0.1
1579478037,2020-01-20 00:53,86.65,1011.04,0.00,1039.95,2.71,0.00,240,0.1
1579478097,2020-01-20 00:54,86.79,1011.02,0.00,1039.93,2.84,0.00,240,0.1
1579478157,2020-01-20 00:55,86.28,1011.09,0.00,1040.00,2.84,0.00,240,0.1
1579478217,2020-01-20 00:56,86.06,1011.01,0.00,1039.93,2.82,0.00,240,0.1
1579478278,2020-01-20 00:57,85.91,1011.04,0.00,1039.95,2.89,0.00,240,0.1
1579478338,2020-01-20 00:58,86.01,1011.06,0.00,1039.97,2.90,0.00,240,0.1
1579478398,2020-01-20 00:59,86.11,1011.06,0.00,1039.98,2.94,0.00,240,0.1
1579478458,2020-01-20 01:00,85.72,1011.08,0.00,1040.00,2.95,0.00,240,0.1
1579478518,2020-01-20 01:01,85.53,1011.08,0.00,1039.99,2.99,0.00,240,0.1
1579478578,2020-01-20 01:02,85.06,1011.08,0.00,1040.00,3.11,0.00,240,0.1
1579478639,2020-01-20 01:03,84.78,1011.09,0.00,1040.01,3.04,0.00,240,0.1
1579478699,2020-01-20 01:04,85.45,1011.11,0.00,1040.03,2.87,0.00,240,0.1
1579478759,2020-01-20 01:05,85.10,1011.14,0.00,1040.05,3.03,0.00,240,0.1
1579478819,2020-01-20 01:06,85.54,1011.11,0.00,1040.03,2.87,0.00,240,0.1
1579478879,2020-01-20 01:07,85.52,1011.20,0.00,1040.11,2.87,0.00,240,0.1
1579478939,2020-01-20 01:08,85.51,1011.19,0.00,1040.11,2.96,0.00,240,0.1
1579478999,2020-01-20 01:09,84.96,1011.20,0.00,1040.12,3.03,0.00,240,0.1
1579479059,2020-01-20 01:10,84.71,1011.24,0.00,1040.16,3.09,0.00,240,0.1
1579479119,2020-01-20 01:11,84.89,1011.26,0.00,1040.17,3.16,0.00,240,0.1
1579479179,2020-01-20 01:12,84.59,1011.21,0.00,1040.12,3.32,0.00,240,0.1
1579479239,2020-01-20 01:13,84.08,1011.20,0.00,1040.12,3.40,0.00,240,0.1
1579479299,2020-01-20 01:14,83.96,1011.23,0.00,1040.14,3.39,0.00,240,0.1
1579479359,2020-01-20 01:15,83.95,1011.28,0.00,1040.20,3.26,0.00,240,0.1
1579479419,2020-01-20 01:16,83.42,1011.25,0.00,1040.16,3.28,0.00,240,0.1
1579479480,2020-01-20 01:18,84.04,1011.27,0.00,1040.18,3.29,0.00,240,0.1
1579479540,2020-01-20 01:19,84.19,1011.32,0.00,1040.24,3.12,0.00,240,0.1
1579479600,2020-01-20 01:20,85.97,1011.25,0.00,1040.16,2.79,0.00,240,0.1
1579479660,2020-01-20 01:21,85.21,1011.31,0.00,1040.23,2.95,0.00,240,0.1
1579479720,2020-01-20 01:22,85.45,1011.33,0.00,1040.24,2.99,0.00,240,0.1
1579479780,2020-01-20 01:23,85.55,1011.37,0.00,1040.28,2.98,0.00,240,0.1
1579479840,2020-01-20 01:24,84.98,1011.37,0.00,1040.28,2.83,0.00,240,0.1
1579479900,2020-01-20 01:25,85.22,1011.38,0.00,1040.30,2.84,0.00,240,0.1
1579479960,2020-01-20 01:26,85.62,1011.36,0.00,1040.28,2.78,0.00,240,0.1
1579480020,2020-01-20 01:27,85.25,1011.45,0.00,1040.36,2.86,0.00,240,0.1
1579480080,2020-01-20 01:28,85.15,1011.43,0.00,1040.34,2.72,0.00,240,0.1
1579480140,2020-01-20 01:29,85.75,1011.44,0.00,1040.36,2.61,0.00,240,0.1
1579480200,2020-01-20 01:30,86.10,1011.45,0.00,1040.36,2.58,0.00,240,0.1
1579480261,2020-01-20 01:31,86.17,1011.45,0.00,1040.37,2.49,0.00,240,0.1
1579480321,2020-01-20 01:32,86.39,1011.48,0.00,1040.40,2.43,0.00,240,0.1
1579480381,2020-01-20 01:33,86.36,1011.51,0.00,1040.42,2.38,0.00,240,0.1
1579480441,2020-01-20 01:34,86.58,1011.51,0.00,1040.43,2.42,0.00,240,0.1
1579480502,2020-01-20 01:35,86.83,1011.50,0.00,1040.42,2.43,0.00,240,0.1
1579480562,2020-01-20 01:36,86.81,1011.53,0.00,1040.44,2.35,0.00,240,0.1
1579480622,2020-01-20 01:37,86.69,1011.51,0.00,1040.43,2.40,0.00,240,0.1
1579480682,2020-01-20 01:38,86.42,1011.55,0.00,1040.47,2.46,0.00,240,0.1
1579480742,2020-01-20 01:39,86.41,1011.55,0.00,1040.47,2.48,0.00,240,0.1
1579480802,2020-01-20 01:40,86.35,1011.59,0.00,1040.50,2.39,0.00,240,0.1
1579480863,2020-01-20 01:41,86.32,1011.62,0.00,1040.54,2.45,0.00,240,0.1
1579480923,2020-01-20 01:42,86.45,1011.59,0.00,1040.51,2.42,0.00,240,0.1
1579480983,2020-01-20 01:43,86.42,1011.62,0.00,1040.53,2.41,0.00,240,0.1
1579481043,2020-01-20 01:44,86.50,1011.63,0.00,1040.54,2.36,0.00,240,0.1
1579481103,2020-01-20 01:45,86.95,1011.67,0.00,1040.59,2.34,0.00,240,0.1
1579481163,2020-01-20 01:46,86.44,1011.64,0.00,1040.56,2.40,0.00,240,0.1
1579481223,2020-01-20 01:47,86.62,1011.64,0.00,1040.55,2.32,0.00,240,0.1
1579481283,2020-01-20 01:48,86.25,1011.68,0.00,1040.59,2.39,0.00,240,0.1
1579481343,2020-01-20 01:49,86.19,1011.71,0.00,1040.63,2.44,0.00,240,0.1
1579481404,2020-01-20 01:50,86.10,1011.73,0.00,1040.65,2.45,0.00,240,0.1
1579481464,2020-01-20 01:51,86.29,1011.80,0.00,1040.71,2.40,0.00,240,0.1
1579481524,2020-01-20 01:52,86.56,1011.79,0.00,1040.70,2.40,0.00,240,0.1
1579481584,2020-01-20 01:53,86.50,1011.76,0.00,1040.67,2.48,0.00,240,0.1
1579481644,2020-01-20 01:54,86.39,1011.78,0.00,1040.69,2.50,0.00,240,0.1
1579481704,2020-01-20 01:55,86.06,1011.77,0.00,1040.69,2.53,0.00,240,0.1
1579481764,2020-01-20 01:56,85.91,1011.79,0.00,1040.70,2.52,0.00,240,0.1
1579481824,2020-01-20 01:57,85.96,1011.77,0.00,1040.69,2.63,0.00,240,0.1
1579481884,2020-01-20 01:58,85.60,1011.79,0.00,1040.71,2.59,0.00,240,0.1
1579481944,2020-01-20 01:59,85.62,1011.77,0.00,1040.69,2.69,0.00,240,0.1
1579482004,2020-01-20 02:00,85.24,1011.78,0.00,1040.69,2.81,0.00,240,0.1
1579482065,2020-01-20 02:01,85.06,1011.80,0.00,1040.72,2.83,0.00,240,0.1
1579482125,2020-01-20 02:02,84.48,1011.80,0.00,1040.71,2.97,0.00,240,0.1
1579482185,2020-01-20 02:03,84.84,1011.85,0.00,1040.76,2.75,0.00,240,0.1
1579482245,2020-01-20 02:04,85.28,1011.85,0.00,1040.77,2.68,0.00,240,0.1
1579482305,2020-01-20 02:05,85.82,1011.89,0.00,1040.81,2.52,0.00,240,0.1
1579482365,2020-01-20 02:06,85.92,1011.88,0.00,1040.80,2.58,0.00,240,0.1
1579482425,2020-01-20 02:07,85.49,1011.91,0.00,1040.82,2.59,0.00,240,0.1
1579482485,2020-01-20 02:08,85.65,1011.90,0.00,1040.82,2.76,0.00,240,0.1
1579482545,2020-01-20 02:09,85.08,1011.86,0.00,1040.77,2.84,0.00,240,0.1
1579482605,2020-01-20 02:10,85.65,1011.87,0.00,1040.78,2.84,0.00,240,0.1
1579482665,2020-01-20 02:11,84.95,1011.87,0.00,1040.79,2.84,0.00,240,0.1
1579482725,2020-01-20 02:12,85.31,1011.87,0.00,1040.78,2.76,0.00,240,0.1
1579482785,2020-01-20 02:13,85.51,1011.86,0.00,1040.78,2.72,0.00,240,0.1
1579482845,2020-01-20 02:14,85.42,1011.85,0.00,1040.77,2.76,0.00,240,0.1
1579482905,2020-01-20 02:15,85.03,1011.85,0.00,1040.76,2.77,0.00,240,0.1
1579482966,2020-01-20 02:16,86.13,1011.89,0.00,1040.81,2.65,0.00,240,0.1
1579483026,2020-01-20 02:17,86.63,1011.92,0.00,1040.84,2.62,0.00,240,0.1
1579483086,2020-01-20 02:18,86.48,1011.91,0.00,1040.83,2.75,0.00,240,0.1
1579483146,2020-01-20 02:19,85.93,1011.93,0.00,1040.84,2.72,0.00,240,0.1
1579483207,2020-01-20 02:20,86.38,1011.92,0.00,1040.83,2.65,0.00,240,0.1
1579483267,2020-01-20 02:21,86.29,1011.93,0.00,1040.85,2.75,0.00,240,0.1
1579483327,2020-01-20 02:22,86.10,1011.92,0.00,1040.84,2.73,0.00,240,0.1
1579483387,2020-01-20 02:23,86.21,1011.92,0.00,1040.83,2.75,0.00,240,0.1
1579483447,2020-01-20 02:24,85.98,1011.94,0.00,1040.85,2.86,0.00,240,0.1
1579483507,2020-01-20 02:25,86.21,1011.98,0.00,1040.89,2.73,0.00,240,0.1
1579483568,2020-01-20 02:26,86.32,1011.97,0.00,1040.89,2.81,0.00,240,0.1
1579483628,2020-01-20 02:27,85.95,1012.00,0.00,1040.92,2.74,0.00,240,0.1
1579483688,2020-01-20 02:28,86.62,1011.98,0.00,1040.90,2.59,0.00,240,0.1
1579483748,2020-01-20 02:29,86.38,1011.97,0.00,1040.89,2.77,0.00,240,0.1
1579483808,2020-01-20 02:30,85.98,1011.99,0.00,1040.91,2.85,0.00,240,0.1
1579483868,2020-01-20 02:31,85.83,1012.02,0.00,1040.94,2.97,0.00,240,0.1
1579483929,2020-01-20 02:32,84.90,1012.02,0.00,1040.93,2.99,0.00,240,0.1
1579483989,2020-01-20 02:33,85.61,1012.03,0.00,1040.94,2.85,0.00,240,0.1
1579484049,2020-01-20 02:34,85.35,1012.03,0.00,1040.95,2.92,0.00,240,0.1
1579484109,2020-01-20 02:35,85.12,1012.02,0.00,1040.94,3.01,0.00,240,0.1
1579484169,2020-01-20 02:36,85.12,1012.00,0.00,1040.92,3.02,0.00,240,0.1
1579484229,2020-01-20 02:37,84.86,1012.03,0.00,1040.94,3.07,0.00,240,0.1
1579484289,2020-01-20 02:38,84.79,1012.01,0.00,1040.93,3.13,0.00,240,0.1
1579484350,2020-01-20 02:39,85.26,1012.03,0.00,1040.94,3.12,0.00,240,0.1
1579484410,2020-01-20 02:40,84.59,1012.00,0.00,1040.92,3.21,0.00,240,0.1
1579484470,2020-01-20 02:41,84.18,1012.03,0.00,1040.95,3.18,0.00,240,0.1
1579484530,2020-01-20 02:42,84.42,1012.01,0.00,1040.92,3.19,0.00,240,0.1
1579484591,2020-01-20 02:43,84.32,1011.97,0.00,1040.89,3.29,0.00,240,0.1
1579484651,2020-01-20 02:44,84.43,1011.98,0.00,1040.90,3.18,0.00,240,0.1
1579484711,2020-01-20 02:45,84.36,1012.01,0.00,1040.93,3.28,0.00,240,0.1
1579484771,2020-01-20 02:46,84.21,1011.99,0.00,1040.91,3.22,0.00,240,0.1
1579484831,2020-01-20 02:47,84.66,1011.99,0.00,1040.91,3.17,0.00,240,0.1
1579484891,2020-01-20 02:48,84.37,1012.02,0.00,1040.93,3.01,0.00,240,0.1
1579484951,2020-01-20 02:49,85.34,1012.00,0.00,1040.92,3.06,0.00,240,0.1
1579485011,2020-01-20 02:50,85.43,1012.01,0.00,1040.92,2.89,0.00,240,0.1
1579485071,2020-01-20 02:51,85.89,1012.02,0.00,1040.93,2.72,0.00,240,0.1
1579485131,2020-01-20 02:52,85.88,1012.03,0.00,1040.94,2.85,0.00,240,0.1
1579485191,2020-01-20 02:53,85.38,1012.09,0.00,1041.01,3.02,0.00,240,0.1
1579485251,2020-01-20 02:54,84.86,1012.03,0.00,1040.95,3.13,0.00,240,0.1
1579485312,2020-01-20 02:55,85.18,1012.09,0.00,1041.01,2.96,0.00,240,0.1
1579485372,2020-01-20 02:56,85.98,1012.11,0.00,1041.03,2.71,0.00,240,0.1
1579485432,2020-01-20 02:57,86.14,1012.10,0.00,1041.02,2.61,0.00,240,0.1
1579485492,2020-01-20 02:58,85.91,1012.15,0.00,1041.06,2.78,0.00,240,0.1
1579485552,2020-01-20 02:59,86.17,1012.14,0.00,1041.05,2.67,0.00,240,0.1
1579485613,2020-01-20 03:00,86.95,1012.20,0.00,1041.12,2.56,0.00,240,0.1
1579485673,2020-01-20 03:01,87.01,1012.18,0.00,1041.10,2.64,0.00,240,0.1
1579485733,2020-01-20 03:02,86.42,1012.21,0.00,1041.13,2.67,0.00,240,0.1
1579485793,2020-01-20 03:03,86.88,1012.22,0.00,1041.14,2.64,0.00,240,0.1
1579485853,2020-01-20 03:04,86.85,1012.27,0.00,1041.18,2.63,0.00,240,0.1
1579485913,2020-01-20 03:05,87.05,1012.22,0.00,1041.14,2.72,0.00,240,0.1
1579485973,2020-01-20 03:06,86.95,1012.31,0.00,1041.22,2.71,0.00,240,0.1
1579486033,2020-01-20 03:07,86.96,1012.31,0.00,1041.22,2.63,0.00,240,0.1
1579486093,2020-01-20 03:08,86.63,1012.31,0.00,1041.22,2.59,0.00,240,0.1
1579486153,2020-01-20 03:09,86.15,1012.33,0.00,1041.24,2.74,0.00,240,0.1
1579486213,2020-01-20 03:10,86.36,1012.36,0.00,1041.28,2.60,0.00,240,0.1
1579486273,2020-01-20 03:11,86.11,1012.39,0.00,1041.31,2.68,0.00,240,0.1
1579486333,2020-01-20 03:12,86.03,1012.40,0.00,1041.32,2.54,0.00,240,0.1
1579486394,2020-01-20 03:13,86.14,1012.43,0.00,1041.34,2.54,0.00,240,0.1
1579486454,2020-01-20 03:14,86.81,1012.43,0.00,1041.35,2.63,0.00,240,0.1
1579486514,2020-01-20 03:15,86.00,1012.43,0.00,1041.34,2.76,0.00,240,0.1
1579486574,2020-01-20 03:16,85.66,1012.47,0.00,1041.38,2.73,0.00,240,0.1
1579486634,2020-01-20 03:17,85.50,1012.49,0.00,1041.41,2.76,0.00,240,0.1
1579486694,2020-01-20 03:18,85.21,1012.50,0.00,1041.41,2.86,0.00,240,0.1
1579486754,2020-01-20 03:19,85.20,1012.51,0.00,1041.42,2.82,0.00,240,0.1
1579486814,2020-01-20 03:20,86.20,1012.52,0.00,1041.44,2.68,0.00,240,0.1
1579486874,2020-01-20 03:21,86.35,1012.51,0.00,1041.43,2.59,0.00,240,0.1
1579486935,2020-01-20 03:22,86.62,1012.47,0.00,1041.39,2.54,0.00,240,0.1
1579486995,2020-01-20 03:23,86.87,1012.47,0.00,1041.39,2.57,0.00,240,0.1
1579487055,2020-01-20 03:24,86.72,1012.45,0.00,1041.37,2.68,0.00,240,0.1
1579487115,2020-01-20 03:25,86.42,1012.46,0.00,1041.37,2.64,0.00,240,0.1
1579487175,2020-01-20 03:26,86.32,1012.50,0.00,1041.41,2.83,0.00,240,0.1
1579487235,2020-01-20 03:27,85.89,1012.53,0.00,1041.45,2.95,0.00,240,0.1
1579487295,2020-01-20 03:28,86.40,1012.57,0.00,1041.48,2.66,0.00,240,0.1
1579487355,2020-01-20 03:29,86.46,1012.57,0.00,1041.48,2.69,0.00,240,0.1
1579487415,2020-01-20 03:30,86.82,1012.53,0.00,1041.45,2.65,0.00,240,0.1
1579487475,2020-01-20 03:31,86.40,1012.52,0.00,1041.44,2.82,0.00,240,0.1
1579487535,2020-01-20 03:32,86.24,1012.57,0.00,1041.48,2.72,0.00,240,0.1
1579487595,2020-01-20 03:33,86.44,1012.51,0.00,1041.43,2.73,0.00,240,0.1
1579487656,2020-01-20 03:34,86.24,1012.51,0.00,1041.42,2.84,0.00,240,0.1
1579487716,2020-01-20 03:35,85.91,1012.51,0.00,1041.42,2.90,0.00,240,0.1
1579487776,2020-01-20 03:36,86.16,1012.52,0.00,1041.44,2.64,0.00,240,0.1
1579487836,2020-01-20 03:37,86.35,1012.52,0.00,1041.43,2.54,0.00,240,0.1
1579487896,2020-01-20 03:38,86.59,1012.51,0.00,1041.43,2.60,0.00,240,0.1
1579487957,2020-01-20 03:39,87.09,1012.56,0.00,1041.47,2.46,0.00,240,0.1
1579488017,2020-01-20 03:40,86.88,1012.53,0.00,1041.45,2.41,0.00,240,0.1
1579488077,2020-01-20 03:41,87.18,1012.55,0.00,1041.46,2.51,0.00,240,0.1
1579488137,2020-01-20 03:42,86.86,1012.53,0.00,1041.44,2.51,0.00,240,0.1
1579488197,2020-01-20 03:43,86.90,1012.53,0.00,1041.44,2.66,0.00,240,0.1
1579488257,2020-01-20 03:44,86.41,1012.50,0.00,1041.42,2.76,0.00,240,0.1
1579488317,2020-01-20 03:45,85.70,1012.55,0.00,1041.47,2.81,0.00,240,0.1
1579488377,2020-01-20 03:46,85.78,1012.56,0.00,1041.48,2.93,0.00,240,0.1
1579488437,2020-01-20 03:47,85.54,1012.56,0.00,1041.47,2.78,0.00,240,0.1
1579488497,2020-01-20 03:48,85.90,1012.54,0.00,1041.45,2.74,0.00,240,0.1
1579488558,2020-01-20 03:49,86.18,1012.53,0.00,1041.45,2.66,0.00,240,0.1
1579488618,2020-01-20 03:50,86.07,1012.53,0.00,1041.45,2.72,0.00,240,0.1
1579488678,2020-01-20 03:51,86.03,1012.58,0.00,1041.49,2.78,0.00,240,0.1
1579488738,2020-01-20 03:52,85.92,1012.57,0.00,1041.48,2.71,0.00,240,0.1
1579488798,2020-01-20 03:53,85.46,1012.59,0.00,1041.50,2.85,0.00,240,0.1
1579488859,2020-01-20 03:54,85.82,1012.62,0.00,1041.53,2.63,0.00,240,0.1
1579488919,2020-01-20 03:55,85.61,1012.60,0.00,1041.52,2.66,0.00,240,0.1
1579488979,2020-01-20 03:56,85.70,1012.60,0.00,1041.52,2.69,0.00,240,0.1
1579489039,2020-01-20 03:57,86.13,1012.65,0.00,1041.56,2.60,0.00,240,0.1
1579489099,2020-01-20 03:58,85.67,1012.66,0.00,1041.58,2.75,0.00,240,0.1
1579489159,2020-01-20 03:59,85.58,1012.66,0.00,1041.58,2.66,0.00,240,0.1
1579489219,2020-01-20 04:00,86.28,1012.76,0.00,1041.68,2.37,0.00,240,0.1
1579489279,2020-01-20 04:01,87.38,1012.75,0.00,1041.67,2.26,0.00,240,0.1
1579489339,2020-01-20 04:02,87.05,1012.75,0.00,1041.66,2.34,0.00,240,0.1
1579489399,2020-01-20 04:03,87.20,1012.79,0.00,1041.70,2.23,0.00,240,0.1
1579489459,2020-01-20 04:04,87.09,1012.80,0.00,1041.71,2.35,0.00,240,0.1
1579489519,2020-01-20 04:05,86.66,1012.78,0.00,1041.70,2.38,0.00,240,0.1
1579489579,2020-01-20 04:06,86.68,1012.77,0.00,1041.69,2.38,0.00,240,0.1
1579489639,2020-01-20 04:07,86.54,1012.78,0.00,1041.70,2.46,0.00,240,0.1
1579489699,2020-01-20 04:08,86.03,1012.74,0.00,1041.65,2.54,0.00,240,0.1
1579489759,2020-01-20 04:09,86.24,1012.75,0.00,1041.66,2.48,0.00,240,0.1
1579489819,2020-01-20 04:10,85.94,1012.80,0.00,1041.72,2.55,0.00,240,0.1
1579489880,2020-01-20 04:11,86.32,1012.77,0.00,1041.68,2.50,0.00,240,0.1
1579489940,2020-01-20 04:12,86.22,1012.81,0.00,1041.72,2.45,0.00,240,0.1
1579490000,2020-01-20 04:13,86.62,1012.84,0.00,1041.75,2.28,0.00,240,0.1
1579490060,2020-01-20 04:14,86.69,1012.83,0.00,1041.75,2.33,0.00,240,0.1
1579490120,2020-01-20 04:15,86.64,1012.92,0.00,1041.83,2.26,0.00,240,0.1
1579490181,2020-01-20 04:16,87.21,1012.89,0.00,1041.80,2.12,0.00,240,0.1
1579490241,2020-01-20 04:17,87.29,1012.92,0.00,1041.84,2.24,0.00,240,0.1
1579490301,2020-01-20 04:18,87.33,1012.94,0.00,1041.86,2.18,0.00,240,0.1
1579490361,2020-01-20 04:19,87.31,1012.90,0.00,1041.82,2.19,0.00,240,0.1
1579490421,2020-01-20 04:20,87.11,1012.89,0.00,1041.81,2.31,0.00,240,0.1
1579490481,2020-01-20 04:21,86.37,1012.93,0.00,1041.84,2.47,0.00,240,0.1
1579490541,2020-01-20 04:22,86.83,1012.93,0.00,1041.85,2.21,0.00,240,0.1
1579490601,2020-01-20 04:23,86.99,1012.93,0.00,1041.84,2.23,0.00,240,0.1
1579490661,2020-01-20 04:24,87.38,1013.03,0.00,1041.94,2.12,0.00,240,0.1
1579490721,2020-01-20 04:25,87.15,1012.95,0.00,1041.86,2.19,0.00,240,0.1
1579490781,2020-01-20 04:26,87.39,1012.98,0.00,1041.89,2.08,0.00,240,0.1
1579490841,2020-01-20 04:27,87.20,1012.98,0.00,1041.90,2.11,0.00,240,0.1
1579490902,2020-01-20 04:28,87.62,1012.97,0.00,1041.89,2.08,0.00,240,0.1
1579490962,2020-01-20 04:29,87.02,1012.98,0.00,1041.89,2.17,0.00,240,0.1
1579491022,2020-01-20 04:30,86.68,1012.99,0.00,1041.91,2.27,0.00,240,0.1
1579491082,2020-01-20 04:31,86.79,1012.99,0.00,1041.91,2.31,0.00,240,0.1
1579491142,2020-01-20 04:32,86.71,1012.99,0.00,1041.91,2.23,0.00,240,0.1
1579491202,2020-01-20 04:33,86.44,1012.99,0.00,1041.91,2.35,0.00,240,0.1
1579491262,2020-01-20 04:34,86.19,1012.99,0.00,1041.90,2.36,0.00,240,0.1
1579491322,2020-01-20 04:35,86.39,1013.02,0.00,1041.93,2.35,0.00,240,0.1
1579491382,2020-01-20 04:36,85.81,1013.05,0.00,1041.97,2.57,0.00,240,0.1
1579491443,2020-01-20 04:37,85.65,1013.03,0.00,1041.95,2.45,0.00,240,0.1
1579491503,2020-01-20 04:38,85.71,1013.02,0.00,1041.93,2.47,0.00,240,0.1
1579491563,2020-01-20 04:39,85.89,1013.04,0.00,1041.95,2.38,0.00,240,0.1
1579491623,2020-01-20 04:40,86.28,1012.98,0.00,1041.90,2.39,0.00,240,0.1
1579491683,2020-01-20 04:41,85.73,1013.02,0.00,1041.93,2.43,0.00,240,0.1
1579491743,2020-01-20 04:42,85.29,1013.03,0.00,1041.95,2.37,0.00,240,0.1
1579491803,2020-01-20 04:43,85.90,1013.06,0.00,1041.97,2.35,0.00,240,0.1
1579491863,2020-01-20 04:44,86.10,1013.07,0.00,1041.99,2.26,0.00,240,0.1
1579491923,2020-01-20 04:45,86.53,1013.11,0.00,1042.03,2.21,0.00,240,0.1
1579491983,2020-01-20 04:46,86.09,1013.14,0.00,1042.05,2.27,0.00,240,0.1
1579492043,2020-01-20 04:47,86.38,1013.16,0.00,1042.08,2.27,0.00,240,0.1
1579492103,2020-01-20 04:48,86.20,1013.18,0.00,1042.10,2.32,0.00,240,0.1
1579492164,2020-01-20 04:49,86.29,1013.15,0.00,1042.07,2.28,0.00,240,0.1
1579492224,2020-01-20 04:50,86.15,1013.15,0.00,1042.06,2.25,0.00,240,0.1
1579492284,2020-01-20 04:51,86.30,1013.15,0.00,1042.07,2.35,0.00,240,0.1
1579492344,2020-01-20 04:52,86.13,1013.16,0.00,1042.07,2.32,0.00,240,0.1
1579492404,2020-01-20 04:53,86.12,1013.19,0.00,1042.10,2.26,0.00,240,0.1
1579492465,2020-01-20 04:54,86.18,1013.21,0.00,1042.12,2.21,0.00,240,0.1
1579492525,2020-01-20 04:55,86.16,1013.19,0.00,1042.11,2.28,0.00,240,0.1
1579492585,2020-01-20 04:56,85.83,1013.21,0.00,1042.13,2.39,0.00,240,0.1
1579492645,2020-01-20 04:57,85.70,1013.24,0.00,1042.16,2.27,0.00,240,0.1
1579492705,2020-01-20 04:58,86.02,1013.29,0.00,1042.20,2.10,0.00,240,0.1
1579492765,2020-01-20 04:59,86.61,1013.28,0.00,1042.20,1.99,0.00,240,0.1
1579492825,2020-01-20 05:00,86.86,1013.28,0.00,1042.19,1.98,0.00,240,0.1
1579492885,2020-01-20 05:01,86.80,1013.30,0.00,1042.21,1.94,0.00,240,0.1
1579492945,2020-01-20 05:02,86.86,1013.35,0.00,1042.27,1.97,0.00,240,0.1
1579493005,2020-01-20 05:03,86.78,1013.36,0.00,1042.27,1.97,0.00,240,0.1
1579493065,2020-01-20 05:04,86.89,1013.42,0.00,1042.33,1.79,0.00,240,0.1
1579493126,2020-01-20 05:05,86.99,1013.43,0.00,1042.34,1.79,0.00,240,0.1
1579493186,2020-01-20 05:06,86.87,1013.38,0.00,1042.29,1.99,0.00,240,0.1
1579493246,2020-01-20 05:07,86.76,1013.41,0.00,1042.32,2.04,0.00,240,0.1
1579493306,2020-01-20 05:08,86.72,1013.47,0.00,1042.39,1.93,0.00,240,0.1
1579493366,2020-01-20 05:09,87.03,1013.43,0.00,1042.35,1.91,0.00,240,0.1
1579493426,2020-01-20 05:10,86.97,1013.45,0.00,1042.36,1.79,0.00,240,0.1
1579493486,2020-01-20 05:11,87.21,1013.49,0.00,1042.41,1.75,0.00,240,0.1
1579493546,2020-01-20 05:12,87.40,1013.51,0.00,1042.43,1.69,0.00,240,0.1
1579493606,2020-01-20 05:13,87.51,1013.53,0.00,1042.45,1.72,0.00,240,0.1
1579493666,2020-01-20 05:14,87.46,1013.55,0.00,1042.47,1.72,0.00,240,0.1
1579493727,2020-01-20 05:15,87.54,1013.57,0.00,1042.49,1.70,0.00,240,0.1
1579493787,2020-01-20 05:16,87.56,1013.61,0.00,1042.53,1.64,0.00,240,0.1
1579493847,2020-01-20 05:17,87.49,1013.54,0.00,1042.46,1.70,0.00,240,0.1
1579493907,2020-01-20 05:18,87.63,1013.56,0.00,1042.48,1.67,0.00,240,0.1
1579493967,2020-01-20 05:19,87.43,1013.55,0.00,1042.47,1.76,0.00,240,0.1
1579494027,2020-01-20 05:20,87.43,1013.51,0.00,1042.43,1.85,0.00,240,0.1
1579494087,2020-01-20 05:21,87.17,1013.54,0.00,1042.46,1.79,0.00,240,0.1
1579494147,2020-01-20 05:22,87.43,1013.54,0.00,1042.46,1.77,0.00,240,0.1
1579494208,2020-01-20 05:23,86.85,1013.54,0.00,1042.46,1.87,0.00,240,0.1
1579494268,2020-01-20 05:24,86.95,1013.53,0.00,1042.44,1.82,0.00,240,0.1
1579494328,2020-01-20 05:25,87.36,1013.48,0.00,1042.40,1.82,0.00,240,0.1
1579494388,2020-01-20 05:26,86.80,1013.51,0.00,1042.42,1.81,0.00,240,0.1
1579494448,2020-01-20 05:27,86.74,1013.53,0.00,1042.45,1.96,0.00,240,0.1
1579494508,2020-01-20 05:28,86.51,1013.57,0.00,1042.48,1.98,0.00,240,0.1